Presque Isle, ME

8:21 AM EDT on April 27, 2017 (GMT -0400)
Northern Maine Regional At Presque Isle

Weather History for KPQI - April, 2014

Change the Weather History Date:

Thursday, April 10, 2014

  Actual Average Record
Temperature  
Mean Temperature 32 °F -  
Max Temperature 50 °F 42 °F 75 °F (1945)
Min Temperature 14 °F 25 °F 9 °F (1977)
Degree Days  
Heating Degree Days 33    
Moisture  
Dew Point 13 °F    
Average Humidity 41    
Maximum Humidity 79    
Minimum Humidity 25    
Precipitation  
Precipitation 0.00 in - - ()
Sea Level Pressure  
Sea Level Pressure 29.85 in    
Wind  
Wind Speed 10 mph (SSW)    
Max Wind Speed 24 mph    
Max Gust Speed 34 mph    
Visibility 10 miles    
Events      
Averages and records for this station are not official NWS values.
T = Trace of Precipitation, MM = Missing Value Source: NWS Daily Summary

Daily Weather History Graph

Daily Weather History Graph

Search for Another Location

Airport or City:

Trip Planner

Search our weather history database for the weather conditions in past years. The results will help you decide how hot, cold, wet, or windy it might be!

Date:

Astronomy

Apr. 10, 2014 Rise Set
Actual Time 5:54 AM EDT 7:13 PM EDT
Civil Twilight 5:23 AM EDT 7:44 PM EDT
Nautical Twilight 4:45 AM EDT 8:22 PM EDT
Astronomical Twilight 4:05 AM EDT 9:03 PM EDT
Moon 2:38 PM EDT (4/10) 3:31 AM EDT (4/10)
Length of Visible Light 14h 21m
Length of Day
13h 19m
Waxing Gibbous, 79% of the Moon is Illuminated
Apr 10
Waxing Gibbous
Apr 15
Full
Apr 22
Last Quarter
Apr 29
New
May 6
First Quarter

Hourly Weather History & Observations

Time (EDT) Temp. Windchill Dew Point Humidity Pressure Visibility Wind Dir Wind Speed Gust Speed Precip Events Conditions
12:15 AM 26.6 °F 18.2 °F 3.2 °F 37% 29.79 in 10.0 mi NW 8.1 mph - N/A   Clear
12:35 AM 26.6 °F 19.1 °F 5.0 °F 40% 29.81 in 10.0 mi NW 6.9 mph - N/A   Clear
12:55 AM 24.8 °F 17.9 °F 5.0 °F 43% 29.81 in 10.0 mi NW 5.8 mph - N/A   Clear
1:15 AM 24.8 °F 19.1 °F 5.0 °F 43% 29.82 in 10.0 mi WNW 4.6 mph - N/A   Clear
1:35 AM 24.8 °F 16.9 °F 5.0 °F 43% 29.83 in 10.0 mi WNW 6.9 mph - N/A   Clear
1:55 AM 24.8 °F 16.9 °F 6.8 °F 46% 29.83 in 10.0 mi WNW 6.9 mph - N/A   Clear
2:15 AM 24.8 °F 16.1 °F 6.8 °F 46% 29.84 in 10.0 mi West 8.1 mph - N/A   Clear
2:35 AM 23.0 °F 14.7 °F 5.0 °F 46% 29.85 in 10.0 mi West 6.9 mph - N/A   Clear
2:55 AM 23.0 °F 15.8 °F 6.8 °F 50% 29.85 in 10.0 mi WNW 5.8 mph - N/A   Clear
3:15 AM 21.2 °F 13.6 °F 6.8 °F 54% 29.86 in 10.0 mi West 5.8 mph - N/A   Clear
3:35 AM 21.2 °F 14.9 °F 6.8 °F 54% 29.86 in 10.0 mi WSW 4.6 mph - N/A   Clear
3:55 AM 19.4 °F 14.3 °F 8.6 °F 63% 29.87 in 10.0 mi WSW 3.5 mph - N/A   Clear
4:15 AM 19.4 °F 14.3 °F 6.8 °F 58% 29.88 in 10.0 mi West 3.5 mph - N/A   Clear
4:35 AM 17.6 °F - 6.8 °F 63% 29.88 in 10.0 mi Calm Calm - N/A   Clear
4:55 AM 17.6 °F - 10.4 °F 73% 29.89 in 10.0 mi Calm Calm - N/A   Clear
5:15 AM 15.8 °F - 10.4 °F 79% 29.89 in 10.0 mi Calm Calm - N/A   Clear
5:35 AM 15.8 °F 10.2 °F 8.6 °F 73% 29.90 in 10.0 mi SSW 3.5 mph - N/A   Clear
5:55 AM 14.0 °F - 8.6 °F 79% 29.91 in 10.0 mi Calm Calm - N/A   Clear
6:15 AM 15.8 °F 10.2 °F 8.6 °F 73% 29.92 in 10.0 mi WSW 3.5 mph - N/A   Clear
6:35 AM 15.8 °F 10.2 °F 8.6 °F 73% 29.93 in 10.0 mi WSW 3.5 mph - N/A   Clear
6:55 AM 17.6 °F 10.7 °F 8.6 °F 68% 29.94 in 10.0 mi SW 4.6 mph - N/A   Clear
7:15 AM 24.8 °F 20.5 °F 10.4 °F 54% 29.94 in 10.0 mi SW 3.5 mph - N/A   Clear
7:35 AM 23.0 °F - 10.4 °F 59% 29.95 in 10.0 mi Calm Calm - N/A   Clear
7:55 AM 28.4 °F 22.2 °F 6.8 °F 40% 29.96 in 10.0 mi WSW 5.8 mph - N/A   Clear
8:15 AM 30.2 °F 22.6 °F 8.6 °F 40% 29.96 in 10.0 mi SW 8.1 mph - N/A   Clear
8:35 AM 30.2 °F 22.6 °F 6.8 °F 37% 29.97 in 10.0 mi SW 8.1 mph - N/A   Clear
8:55 AM 32.0 °F 26.4 °F 6.8 °F 35% 29.97 in 10.0 mi SW 5.8 mph - N/A   Clear
9:15 AM 33.8 °F 27.0 °F 6.8 °F 32% 29.97 in 10.0 mi SW 8.1 mph - N/A   Clear
9:35 AM 33.8 °F 26.4 °F 8.6 °F 35% 29.97 in 10.0 mi SW 9.2 mph - N/A   Clear
9:55 AM 35.6 °F 31.7 °F 8.6 °F 33% 29.96 in 10.0 mi SW 4.6 mph - N/A   Clear
10:15 AM 37.4 °F 29.8 °F 8.6 °F 30% 29.96 in 10.0 mi SSW 11.5 mph 16.1 mph N/A   Clear
10:35 AM 37.4 °F 29.8 °F 8.6 °F 30% 29.95 in 10.0 mi SSW 11.5 mph - N/A   Clear
10:55 AM 39.2 °F 32.0 °F 8.6 °F 28% 29.94 in 10.0 mi South 11.5 mph - N/A   Partly Cloudy
11:15 AM 41.0 °F 34.7 °F 8.6 °F 26% 29.94 in 10.0 mi SW 10.4 mph - N/A   Scattered Clouds
11:35 AM 42.8 °F 38.0 °F 10.4 °F 27% 29.92 in 10.0 mi SSW 8.1 mph 16.1 mph N/A   Clear
11:55 AM 41.0 °F 33.9 °F 10.4 °F 29% 29.92 in 10.0 mi South 12.7 mph 20.7 mph N/A   Clear
12:15 PM 42.8 °F 34.3 °F 12.2 °F 29% 29.91 in 10.0 mi South 19.6 mph 26.5 mph N/A   Clear
12:35 PM 44.6 °F 37.2 °F 10.4 °F 25% 29.91 in 10.0 mi SSW 17.3 mph 25.3 mph N/A   Clear
12:55 PM 44.6 °F 36.9 °F 12.2 °F 27% 29.90 in 10.0 mi SSW 18.4 mph - N/A   Clear
1:15 PM 44.6 °F 38.1 °F 12.2 °F 27% 29.89 in 10.0 mi South 13.8 mph 21.9 mph N/A   Clear
1:35 PM 46.4 °F 39.8 °F 14.0 °F 27% 29.89 in 10.0 mi South 16.1 mph 19.6 mph N/A   Clear
1:55 PM 46.4 °F 39.8 °F 14.0 °F 27% 29.89 in 10.0 mi SSW 16.1 mph 21.9 mph N/A   Clear
2:15 PM 46.4 °F 38.7 °F 14.0 °F 27% 29.87 in 10.0 mi South 20.7 mph 26.5 mph N/A   Clear
2:35 PM 46.4 °F 39.8 °F 14.0 °F 27% 29.86 in 10.0 mi South 16.1 mph 19.6 mph N/A   Scattered Clouds
2:55 PM 48.2 °F - 15.8 °F 27% 29.85 in 10.0 mi South 20.7 mph 28.8 mph N/A   Partly Cloudy
3:15 PM 48.2 °F - 15.8 °F 27% 29.85 in 10.0 mi South 18.4 mph - N/A   Clear
3:35 PM 48.2 °F - 15.8 °F 27% 29.83 in 10.0 mi South 16.1 mph 25.3 mph N/A   Partly Cloudy
3:55 PM 50.0 °F - 17.6 °F 28% 29.82 in 10.0 mi South 15.0 mph 21.9 mph N/A   Partly Cloudy
4:15 PM 50.0 °F - 17.6 °F 28% 29.82 in 10.0 mi SSW 17.3 mph 28.8 mph N/A   Clear
4:35 PM 50.0 °F - 17.6 °F 28% 29.81 in 10.0 mi South 19.6 mph 28.8 mph N/A   Clear
4:55 PM 50.0 °F - 17.6 °F 28% 29.79 in 10.0 mi South 17.3 mph 25.3 mph N/A   Clear
5:15 PM 50.0 °F - 17.6 °F 28% 29.79 in 10.0 mi South 20.7 mph 27.6 mph N/A   Clear
5:35 PM 48.2 °F - 17.6 °F 30% 29.79 in 10.0 mi South 23.0 mph 27.6 mph N/A   Clear
5:55 PM 48.2 °F - 15.8 °F 27% 29.78 in 10.0 mi South 16.1 mph 23.0 mph N/A   Clear
6:15 PM 48.2 °F - 19.4 °F 32% 29.77 in 10.0 mi South 20.7 mph 24.2 mph N/A   Clear
6:35 PM 46.4 °F 38.5 °F 19.4 °F 34% 29.76 in 10.0 mi South 21.9 mph 25.3 mph N/A   Clear
6:55 PM 46.4 °F 39.0 °F 19.4 °F 34% 29.76 in 10.0 mi South 19.6 mph 26.5 mph N/A   Clear
7:15 PM 46.4 °F 38.1 °F 19.4 °F 34% 29.76 in 10.0 mi South 24.2 mph 32.2 mph N/A   Clear
7:35 PM 44.6 °F 36.4 °F 19.4 °F 37% 29.77 in 10.0 mi South 20.7 mph 31.1 mph N/A   Clear
7:55 PM 44.6 °F 36.9 °F 19.4 °F 37% 29.78 in 10.0 mi South 18.4 mph 33.4 mph N/A   Clear
8:15 PM 44.6 °F 35.9 °F 21.2 °F 39% 29.78 in 10.0 mi South 23.0 mph 34.5 mph N/A   Clear
8:35 PM 42.8 °F 34.3 °F 21.2 °F 42% 29.78 in 10.0 mi South 19.6 mph 28.8 mph N/A   Clear
8:55 PM 42.8 °F 34.3 °F 21.2 °F 42% 29.78 in 10.0 mi South 19.6 mph 28.8 mph N/A   Clear
9:15 PM 42.8 °F 33.8 °F 21.2 °F 42% 29.78 in 10.0 mi South 21.9 mph 28.8 mph N/A   Clear
9:35 PM 42.8 °F 35.4 °F 21.2 °F 42% 29.78 in 10.0 mi South 15.0 mph 23.0 mph N/A   Clear
9:55 PM 42.8 °F 34.0 °F 23.0 °F 46% 29.77 in 10.0 mi South 20.7 mph 24.2 mph N/A   Clear
10:15 PM 42.8 °F 35.1 °F 23.0 °F 46% 29.77 in 10.0 mi South 16.1 mph 24.2 mph N/A   Clear
10:35 PM 42.8 °F 34.3 °F 23.0 °F 46% 29.76 in 10.0 mi South 19.6 mph 26.5 mph N/A   Clear
10:55 PM 42.8 °F 35.1 °F 23.0 °F 46% 29.77 in 10.0 mi South 16.1 mph 23.0 mph N/A   Clear
11:15 PM 42.8 °F 34.8 °F 23.0 °F 46% 29.76 in 10.0 mi South 17.3 mph 26.5 mph N/A   Clear
11:35 PM 42.8 °F 34.8 °F 23.0 °F 46% 29.75 in 10.0 mi South 17.3 mph 27.6 mph N/A   Partly Cloudy
11:55 PM 42.8 °F 35.8 °F 23.0 °F 46% 29.74 in 10.0 mi South 13.8 mph 20.7 mph N/A   Mostly Cloudy